Time,TemperatureF,DewpointF,PressureIn,WindDirection,WindDirectionDegrees,WindSpeedMPH,WindSpeedGustMPH,Humidity,HourlyPrecipIn,Conditions,Clouds,dailyrainin,SolarRadiationWatts/m^2,SoftwareType,DateUTC
2013-07-31 00:02:00,56.0,51.0,-100.00,NW,308,1.0,1.0,83,0.00,,,-99.99,0.000000,,2013-07-31 07:02:00,
2013-07-31 00:32:00,54.0,51.0,-100.00,NNE,13,1.0,2.0,88,0.00,,,0.00,0.000000,,2013-07-31 07:32:00,
2013-07-31 00:43:00,54.0,51.0,-100.00,NNE,13,1.0,2.0,88,0.00,,,0.00,0.000000,,2013-07-31 07:43:00,
2013-07-31 00:52:00,54.0,51.0,-100.00,NNE,13,1.0,2.0,88,0.00,,,0.00,0.000000,,2013-07-31 07:52:00,
2013-07-31 01:02:00,54.0,51.0,-100.00,NNE,13,1.0,2.0,88,0.00,,,0.00,0.000000,,2013-07-31 08:02:00,
2013-07-31 01:33:00,53.0,49.0,-100.00,NNE,31,1.0,2.0,86,0.00,,,0.00,0.000000,,2013-07-31 08:33:00,
2013-07-31 01:42:00,53.0,49.0,-100.00,NNE,31,1.0,2.0,86,0.00,,,0.00,0.000000,,2013-07-31 08:42:00,
2013-07-31 01:53:00,53.0,49.0,-100.00,NNE,31,1.0,2.0,86,0.00,,,0.00,0.000000,,2013-07-31 08:53:00,
2013-07-31 02:02:00,53.0,49.0,-100.00,NNE,31,1.0,2.0,86,0.00,,,0.00,0.000000,,2013-07-31 09:02:00,
2013-07-31 02:44:00,53.0,49.0,-100.00,North,4,1.0,2.0,87,0.00,,,-99.99,0.000000,,2013-07-31 09:44:00,
2013-07-31 02:52:00,53.0,49.0,-100.00,North,4,1.0,2.0,87,0.00,,,-99.99,0.000000,,2013-07-31 09:52:00,
2013-07-31 03:02:00,53.0,49.0,-100.00,North,4,1.0,2.0,87,0.00,,,-99.99,0.000000,,2013-07-31 10:02:00,
2013-07-31 03:32:00,52.0,49.0,-100.00,NNE,25,1.0,2.0,91,0.00,,,0.00,0.000000,,2013-07-31 10:32:00,
2013-07-31 03:44:00,52.0,49.0,-100.00,NNE,25,1.0,2.0,91,0.00,,,0.00,0.000000,,2013-07-31 10:44:00,
2013-07-31 03:52:00,52.0,49.0,-100.00,NNE,25,1.0,2.0,91,0.00,,,0.00,0.000000,,2013-07-31 10:52:00,
2013-07-31 04:03:00,52.0,49.0,-100.00,NNE,25,1.0,2.0,91,0.00,,,0.00,0.000000,,2013-07-31 11:03:00,
2013-07-31 04:33:00,52.0,48.0,-100.00,NNE,30,0.0,2.0,86,0.00,,,0.00,0.000000,,2013-07-31 11:33:00,
2013-07-31 04:43:00,52.0,48.0,-100.00,NNE,30,0.0,2.0,86,0.00,,,0.00,0.000000,,2013-07-31 11:43:00,
2013-07-31 04:53:00,52.0,48.0,-100.00,NNE,30,0.0,2.0,86,0.00,,,0.00,0.000000,,2013-07-31 11:53:00,
2013-07-31 05:02:00,52.0,48.0,-100.00,NNE,30,0.0,2.0,86,0.00,,,0.00,0.000000,,2013-07-31 12:02:00,
2013-07-31 05:33:00,51.0,47.0,-100.00,NNE,27,2.0,2.0,87,0.00,,,0.00,0.000000,,2013-07-31 12:33:00,
2013-07-31 05:43:00,51.0,47.0,-100.00,NNE,27,2.0,2.0,87,0.00,,,0.00,0.000000,,2013-07-31 12:43:00,
2013-07-31 05:52:00,51.0,47.0,-100.00,NNE,27,2.0,2.0,87,0.00,,,0.00,0.000000,,2013-07-31 12:52:00,
2013-07-31 06:02:00,51.0,47.0,-100.00,NNE,27,2.0,2.0,87,0.00,,,0.00,0.000000,,2013-07-31 13:02:00,
2013-07-31 06:43:00,52.0,49.0,-100.00,NNE,23,1.0,2.0,91,0.00,,,0.00,6.000000,,2013-07-31 13:43:00,
2013-07-31 06:53:00,52.0,49.0,-100.00,NNE,23,1.0,2.0,91,0.00,,,0.00,6.000000,,2013-07-31 13:53:00,
2013-07-31 07:02:00,52.0,49.0,-100.00,NNE,23,1.0,2.0,91,0.00,,,0.00,6.000000,,2013-07-31 14:02:00,
2013-07-31 07:43:00,62.0,55.0,-100.00,NE,50,1.0,1.0,79,-99.99,,,0.00,97.000000,,2013-07-31 14:43:00,
2013-07-31 07:53:00,62.0,55.0,-100.00,NE,50,1.0,1.0,79,-99.99,,,0.00,97.000000,,2013-07-31 14:53:00,
2013-07-31 08:02:00,62.0,55.0,-100.00,NE,50,1.0,1.0,79,-99.99,,,0.00,97.000000,,2013-07-31 15:02:00,
2013-07-31 08:44:00,73.0,54.0,-100.00,ENE,67,3.0,5.0,52,0.00,,,0.00,425.000000,,2013-07-31 15:44:00,
2013-07-31 08:53:00,73.0,54.0,-100.00,ENE,67,3.0,5.0,52,0.00,,,0.00,425.000000,,2013-07-31 15:53:00,
2013-07-31 09:44:00,78.0,53.0,-100.00,ENE,67,6.0,9.0,42,0.00,,,0.00,477.000000,,2013-07-31 16:44:00,
2013-07-31 09:52:00,78.0,53.0,-100.00,ENE,67,6.0,9.0,42,0.00,,,0.00,477.000000,,2013-07-31 16:52:00,
2013-07-31 10:02:00,78.0,53.0,-100.00,ENE,67,6.0,9.0,42,0.00,,,0.00,477.000000,,2013-07-31 17:02:00,
2013-07-31 10:33:00,80.0,48.0,-100.00,ESE,122,6.0,9.0,33,0.00,,,0.00,625.000000,,2013-07-31 17:33:00,
2013-07-31 10:43:00,80.0,48.0,-100.00,ESE,122,6.0,9.0,33,0.00,,,0.00,625.000000,,2013-07-31 17:43:00,
2013-07-31 10:53:00,80.0,48.0,-100.00,ESE,122,6.0,9.0,33,0.00,,,0.00,625.000000,,2013-07-31 17:53:00,
2013-07-31 11:02:00,80.0,48.0,-100.00,ESE,122,6.0,9.0,33,0.00,,,0.00,625.000000,,2013-07-31 18:02:00,
2013-07-31 11:33:00,80.0,47.0,-100.00,East,83,5.0,14.0,31,0.00,,,0.00,813.000000,,2013-07-31 18:33:00,
2013-07-31 11:43:00,80.0,47.0,-100.00,East,83,5.0,14.0,31,0.00,,,0.00,813.000000,,2013-07-31 18:43:00,
2013-07-31 11:52:00,80.0,47.0,-100.00,East,83,5.0,14.0,31,0.00,,,0.00,813.000000,,2013-07-31 18:52:00,
2013-07-31 12:02:00,80.0,47.0,-100.00,East,83,5.0,14.0,31,0.00,,,0.00,813.000000,,2013-07-31 19:02:00,
2013-07-31 12:33:00,83.0,47.0,-100.00,SSE,149,6.0,14.0,29,0.00,,,0.00,728.000000,,2013-07-31 19:33:00,
2013-07-31 12:43:00,83.0,47.0,-100.00,SSE,149,6.0,14.0,29,0.00,,,0.00,728.000000,,2013-07-31 19:43:00,
2013-07-31 12:53:00,83.0,47.0,-100.00,SSE,149,6.0,14.0,29,0.00,,,0.00,728.000000,,2013-07-31 19:53:00,
2013-07-31 13:02:00,83.0,47.0,-100.00,SSE,149,6.0,14.0,29,0.00,,,0.00,728.000000,,2013-07-31 20:02:00,
2013-07-31 13:43:00,84.0,46.0,-100.00,South,191,5.0,15.0,27,0.00,,,0.00,911.000000,,2013-07-31 20:43:00,
2013-07-31 13:53:00,84.0,46.0,-100.00,South,191,5.0,15.0,27,0.00,,,0.00,911.000000,,2013-07-31 20:53:00,
2013-07-31 14:02:00,84.0,46.0,-100.00,South,191,5.0,15.0,27,0.00,,,0.00,911.000000,,2013-07-31 21:02:00,
2013-07-31 14:43:00,85.0,45.0,-100.00,SSW,201,7.0,15.0,25,0.00,,,0.00,964.000000,,2013-07-31 21:43:00,
2013-07-31 14:53:00,85.0,45.0,-100.00,SSW,201,7.0,15.0,25,0.00,,,0.00,964.000000,,2013-07-31 21:53:00,
2013-07-31 15:02:00,85.0,45.0,-100.00,SSW,201,7.0,15.0,25,0.00,,,0.00,964.000000,,2013-07-31 22:02:00,
2013-07-31 15:33:00,82.0,44.0,-100.00,WSW,242,4.0,13.0,26,0.00,,,0.00,612.000000,,2013-07-31 22:33:00,
2013-07-31 15:43:00,82.0,44.0,-100.00,WSW,242,4.0,13.0,26,0.00,,,0.00,612.000000,,2013-07-31 22:43:00,
2013-07-31 15:53:00,82.0,44.0,-100.00,WSW,242,4.0,13.0,26,0.00,,,0.00,612.000000,,2013-07-31 22:53:00,
2013-07-31 16:02:00,82.0,44.0,-100.00,WSW,242,4.0,13.0,26,0.00,,,0.00,612.000000,,2013-07-31 23:02:00,
2013-07-31 16:32:00,78.0,48.0,-100.00,ESE,120,4.0,11.0,35,0.00,,,0.00,185.000000,,2013-07-31 23:32:00,
2013-07-31 16:42:00,78.0,48.0,-100.00,ESE,120,4.0,11.0,35,0.00,,,0.00,185.000000,,2013-07-31 23:42:00,
2013-07-31 16:52:00,78.0,48.0,-100.00,ESE,120,4.0,11.0,35,0.00,,,0.00,185.000000,,2013-07-31 23:52:00,
2013-07-31 17:02:00,78.0,48.0,-100.00,ESE,120,4.0,11.0,35,0.00,,,0.00,185.000000,,2013-08-01 00:02:00,
2013-07-31 17:43:00,78.0,50.0,-100.00,ENE,77,8.0,14.0,37,0.00,,,0.00,228.000000,,2013-08-01 00:43:00,
2013-07-31 17:52:00,78.0,50.0,-100.00,ENE,77,8.0,14.0,37,0.00,,,0.00,228.000000,,2013-08-01 00:52:00,
2013-07-31 18:02:00,78.0,50.0,-100.00,ENE,77,8.0,14.0,37,0.00,,,0.00,228.000000,,2013-08-01 01:02:00,
2013-07-31 18:33:00,67.0,57.0,-100.00,ENE,74,5.0,11.0,71,0.01,,,0.01,78.000000,,2013-08-01 01:33:00,
2013-07-31 18:43:00,67.0,57.0,-100.00,ENE,74,5.0,11.0,71,0.01,,,0.01,78.000000,,2013-08-01 01:43:00,
2013-07-31 18:53:00,67.0,57.0,-100.00,ENE,74,5.0,11.0,71,0.01,,,0.01,78.000000,,2013-08-01 01:53:00,
2013-07-31 19:02:00,67.0,57.0,-100.00,ENE,74,5.0,11.0,71,0.01,,,0.01,78.000000,,2013-08-01 02:02:00,
2013-07-31 19:32:00,65.0,56.0,-100.00,NNW,342,2.0,5.0,72,0.00,,,0.01,79.000000,,2013-08-01 02:32:00,
2013-07-31 19:43:00,65.0,56.0,-100.00,NNW,342,2.0,5.0,72,0.00,,,0.01,79.000000,,2013-08-01 02:43:00,
2013-07-31 19:52:00,65.0,56.0,-100.00,NNW,342,2.0,5.0,72,0.00,,,0.01,79.000000,,2013-08-01 02:52:00,
2013-07-31 20:02:00,65.0,56.0,-100.00,NNW,342,2.0,5.0,72,0.00,,,0.01,79.000000,,2013-08-01 03:02:00,
2013-07-31 20:32:00,63.0,59.0,-100.00,NW,312,2.0,4.0,86,0.00,,,0.01,3.000000,,2013-08-01 03:32:00,
2013-07-31 20:43:00,63.0,59.0,-100.00,NW,312,2.0,4.0,86,0.00,,,0.01,3.000000,,2013-08-01 03:43:00,
2013-07-31 20:53:00,63.0,59.0,-100.00,NW,312,2.0,4.0,86,0.00,,,0.01,3.000000,,2013-08-01 03:53:00,
2013-07-31 21:02:00,63.0,59.0,-100.00,NW,312,2.0,4.0,86,0.00,,,0.01,3.000000,,2013-08-01 04:02:00,
2013-07-31 21:43:00,64.0,56.0,-100.00,WNW,282,1.0,6.0,74,0.00,,,0.01,0.000000,,2013-08-01 04:43:00,
2013-07-31 21:53:00,64.0,56.0,-100.00,WNW,282,1.0,6.0,74,0.00,,,0.01,0.000000,,2013-08-01 04:53:00,
2013-07-31 22:02:00,64.0,56.0,-100.00,WNW,282,1.0,6.0,74,0.00,,,0.01,0.000000,,2013-08-01 05:02:00,
2013-07-31 22:33:00,66.0,53.0,-100.00,WSW,245,5.0,14.0,63,0.00,,,0.01,0.000000,,2013-08-01 05:33:00,
2013-07-31 22:43:00,66.0,53.0,-100.00,WSW,245,5.0,14.0,63,0.00,,,0.01,0.000000,,2013-08-01 05:43:00,
2013-07-31 22:53:00,66.0,53.0,-100.00,WSW,245,5.0,14.0,63,0.00,,,0.01,0.000000,,2013-08-01 05:53:00,
2013-07-31 23:02:00,66.0,53.0,-100.00,WSW,245,5.0,14.0,63,0.00,,,0.01,0.000000,,2013-08-01 06:02:00,
2013-07-31 23:33:00,63.0,53.0,-100.00,ENE,64,2.0,12.0,69,0.00,,,0.01,0.000000,,2013-08-01 06:33:00,
2013-07-31 23:43:00,63.0,53.0,-100.00,ENE,64,2.0,12.0,69,0.00,,,0.01,0.000000,,2013-08-01 06:43:00,
2013-07-31 23:52:00,63.0,53.0,-100.00,ENE,64,2.0,12.0,69,0.00,,,0.01,0.000000,,2013-08-01 06:52:00,